カタログに戻る

FENGYUN 1C DEB

運用中SSO
NORAD 29869·DEBRIS·🇨🇳 China

打ち上げ May 10, 1999 から Taiyuan Satellite Launch Center

Loading…

次のパス (今後24時間)

TLE

最新Source: Space-Track

元期: Sep 14, 2026, 06:59 UTC

1 29869U 99025FP  26257.29165683  .00000549  00000-0  19196-3 0  9998
2 29869  98.8927 201.5348 0085332 278.4766 240.6591 14.37401944 27736

AllMySatでFENGYUN 1C DEBをリアルタイム追跡

Download on the App Store